[[{"header":{"parameterUnit":"m.s-1","parameterCategory":1,"la1":30.2992,"la2":30.254,"lo1":-89.0895,"lo2":-89.0443,"dy":0.0025,"dx":0.0025,"nx":19,"ny":19,"refTime":"2026-04-03T09:00:00:Z","depth":0,"parameterNumber":2,"parameterNumberName":"U-component_of_WINDS"},"data":[0,0,0,-4.9145,-4.9146,-4.9194,-4.9194,-4.9275,-4.9276,0,0,0,0,0,0,0,0,0,0,0,-4.9142,-4.9143,-4.9145,-4.9146,-4.9194,-4.9194,-4.9275,-4.9276,0,0,0,0,0,0,0,0,0,0,0,-4.9142,-4.9143,-4.9144,-4.9146,-4.9194,-4.9194,-4.9274,-4.9231,0,0,0,0,0,0,0,0,0,0,-4.9181,-4.919,-4.9143,-4.9144,-4.9147,-4.9194,-4.9194,-4.9229,-4.9234,-4.9261,0,-4.9289,0,-4.9284,-4.9282,-4.9283,0,0,0,-4.9137,-4.9186,-4.9189,-4.9144,-4.9147,-4.9194,-4.917,-4.9231,-4.9237,-4.9268,-4.929,-4.9292,-4.9285,-4.9283,-4.9284,-4.9473,-4.9474,0,0,-4.9134,-4.9157,-4.9185,-4.9193,-4.9187,-4.9168,-4.9172,-4.9235,-4.926,-4.929,-4.9294,-4.9287,-4.9284,-4.9284,-4.9472,-4.9473,0,0,0,-4.9133,-4.9155,-4.9156,-4.919,-4.9198,-4.917,-4.9174,-4.9257,-4.9255,-4.9295,-4.9288,-4.9284,-4.9285,-4.947,-4.9472,-4.9558,0,0,0,-4.9131,-4.9154,-4.9155,-4.9169,-4.9197,-4.9228,-4.9195,-4.9251,-4.9257,-4.9287,-4.9284,-4.9286,-4.9469,-4.9471,-4.9553,-4.9595,0,0,0,-4.9135,-4.9155,-4.9166,-4.9171,-4.9192,-4.9226,-4.9228,-4.9252,-4.9253,-4.9283,-4.9287,-4.9468,-4.9471,-4.9548,-4.9587,-4.9651,0,0,0,-4.9146,-4.9241,-4.9168,-4.9272,-4.9192,-4.928,-4.9227,-4.9291,-4.9327,-4.9285,-4.9469,-4.9472,-4.9546,-4.9582,-4.9646,-4.9708,-4.9737,0,0,-4.9279,-4.9258,-4.9318,-4.9253,-4.936,-4.9271,-4.939,-4.9401,-4.9383,-4.9444,-4.9448,-4.9555,-4.9586,-4.965,-4.9891,-4.9913,0,0,0,-4.9367,-4.941,-4.9434,-4.9469,-4.9481,-4.9494,-4.9485,-4.9489,-4.954,-4.9419,-4.9595,-4.9613,-4.965,-4.9678,-4.9698,-4.9727,-4.9487,-4.9486,-4.9486,-4.9586,-4.956,-4.9656,-4.9636,-4.9671,-4.9662,-4.9688,-4.9692,-4.9653,-4.9696,-4.9713,-4.9862,-4.9897,-4.9911,-4.9943,-4.9745,-4.9745,-4.9746,-4.9746,-4.9778,-4.9834,-4.9783,-4.9859,-4.983,-4.9893,-4.9888,-4.9859,-4.9914,-4.9847,-4.9878,-4.9806,-4.9937,-4.9963,-4.9752,-4.9751,-4.975,-4.975,-4.9749,-4.9917,-4.994,-4.9945,-4.9994,-5.0036,-5.0012,-5.0067,-5.0039,-5.0012,-5.0043,-5.0058,-5.0057,-5.0051,-5.0053,-5.0053,-5.0054,-5.0054,-5.0055,-5.0055,-5.006,-5.0062,-5.0112,-5.0135,-5.0154,-5.0177,-5.017,-5.0189,-5.0202,-5.0177,-5.0177,-5.0134,-4.9956,-4.9911,-5.0063,-5.0061,-5.006,-5.006,-5.0059,-5.0262,-5.0212,-5.0289,-5.031,-5.0334,-5.0377,-5.0341,-5.0382,-5.0393,-5.0422,-5.0374,-5.0247,-5.0223,-5.0207,-5.017,-5.0379,-5.0379,-5.0379,-5.0379,-5.0378,-5.0365,-5.0438,-5.0472,-5.0502,-5.0478,-5.0567,-5.0563,-5.0551,-5.0557,-5.0523,-5.0472,-5.0457,-5.0442,-5.0421,-5.0385,-5.0645,-5.0646,-5.0646,-5.0501,-5.0489,-5.0569,-5.0558,-5.0575,-5.0591,-5.0673,-5.0715,-5.0691,-5.0656,-5.0561,-5.0549,-5.0466,-5.044,-5.0401,-5.037,-5.0304,0,0]},{"header":{"parameterUnit":"m.s-1","parameterCategory":1,"la1":30.2992,"la2":30.254,"lo1":-89.0895,"lo2":-89.0443,"dy":0.0025,"dx":0.0025,"nx":19,"ny":19,"refTime":"2026-04-03T09:00:00:Z","depth":0,"parameterNumber":3,"parameterNumberName":"V-component_of_WINDS"},"data":[0,0,0,2.2669,2.267,2.2699,2.2699,2.2717,2.2717,0,0,0,0,0,0,0,0,0,0,0,2.265,2.265,2.2669,2.267,2.2699,2.2699,2.2717,2.2717,0,0,0,0,0,0,0,0,0,0,0,2.265,2.265,2.265,2.267,2.2699,2.2699,2.2717,2.2702,0,0,0,0,0,0,0,0,0,0,2.2676,2.2649,2.265,2.265,2.267,2.2699,2.2699,2.2701,2.2703,2.2696,0,2.2689,0,2.2704,2.2717,2.2717,0,0,0,2.2677,2.2647,2.2665,2.265,2.267,2.2699,2.2688,2.2702,2.2704,2.2698,2.2689,2.2691,2.2704,2.2717,2.2717,2.2662,2.2662,0,0,2.2675,2.2649,2.2664,2.2666,2.2662,2.2687,2.2689,2.2704,2.2692,2.2689,2.2691,2.2704,2.2717,2.2717,2.2663,2.2662,0,0,0,2.2666,2.2647,2.2666,2.2665,2.2671,2.2688,2.269,2.2691,2.2699,2.2692,2.2704,2.2717,2.2717,2.2664,2.2663,2.261,0,0,0,2.2665,2.2642,2.2664,2.2648,2.2671,2.2682,2.2676,2.2698,2.2701,2.2704,2.2717,2.2717,2.2664,2.2663,2.2613,2.2589,0,0,0,2.2652,2.2641,2.2642,2.2647,2.2659,2.2682,2.2692,2.2699,2.2708,2.2717,2.2717,2.2665,2.2663,2.2616,2.2593,2.2569,0,0,0,2.2629,2.2591,2.264,2.2604,2.2659,2.265,2.2692,2.2686,2.2687,2.2717,2.2664,2.2663,2.2617,2.2596,2.2571,2.2544,2.253,0,0,2.2567,2.2583,2.2564,2.2608,2.2585,2.2648,2.2616,2.2641,2.2664,2.2661,2.266,2.2612,2.2594,2.2569,2.2459,2.2448,0,0,0,2.2535,2.2521,2.252,2.2523,2.2543,2.2559,2.2592,2.2602,2.2602,2.2658,2.2597,2.2587,2.2573,2.2561,2.2552,2.2543,2.2656,2.2656,2.2656,2.2408,2.2443,2.2415,2.2454,2.2456,2.2493,2.2497,2.2516,2.2548,2.2534,2.2533,2.2462,2.2447,2.244,2.243,2.2521,2.2521,2.252,2.252,2.2321,2.2307,2.2355,2.2345,2.2382,2.2373,2.2407,2.2431,2.2428,2.2465,2.2455,2.2492,2.2427,2.242,2.2517,2.2517,2.2518,2.2518,2.2518,2.2242,2.2242,2.2257,2.2267,2.227,2.2311,2.2307,2.234,2.2371,2.2361,2.2366,2.2366,2.2372,2.2361,2.2361,2.2361,2.236,2.236,2.236,2.2154,2.2173,2.2167,2.2189,2.2197,2.2211,2.225,2.2258,2.2275,2.2299,2.23,2.2334,2.2414,2.2434,2.2356,2.2357,2.2358,2.2358,2.2358,2.2054,2.2083,2.2073,2.2081,2.2111,2.2113,2.2157,2.2171,2.2183,2.218,2.2218,2.2271,2.2289,2.2297,2.2314,2.221,2.221,2.221,2.221,2.1987,2.2001,2.2001,2.2012,2.2027,2.2067,2.2055,2.2086,2.2121,2.2131,2.2151,2.2176,2.2182,2.2196,2.2206,2.2223,2.2098,2.2098,2.2098,2.1928,2.1946,2.1929,2.1968,2.1995,2.2016,2.2007,2.2017,2.2064,2.2094,2.2139,2.2144,2.2185,2.2196,2.2226,2.2241,2.2271,0,0]}]]